Погода в Лутраки

Греция     37°58′21″N   22°58′39″E
темп.,
°C
ветер,
м/с
пор.,
м/с
влажн.,
%
обл.,
%
осадки,
мм/ч
давл.,
гПа
погр.,
м
22 октября, пт
пт2200:00+17з34700 0.0 1020187
03:00+16з34730 0.0 1020173
06:00+15з34746 0.0 1020162
09:00+17зюз346811 0.0 1020205
12:00+20з23580 0.0 1021713
15:00+21з11560 0.0 1020876
18:00+19зюз356781 0.0 1020400
21:00+19зсз46731 0.0 1020306
23 октября, сб
сб2300:00+18з33774 0.0 1021150
03:00+17з23760 0.0 1020144
06:00+16з237911 0.0 1020128
09:00+17з237440 0.0 1021204
12:00+21зсз236220 0.0 1021570
15:00+22сз225676 0.0 1020650
18:00+21зюз12635 0.0 1020210
21:00+19ююз11735 0.0 102149
24 октября, вс
вс2400:00+18юз11785 0.0 102152
03:00+18зюз22756 0.0 102087
06:00+18з228540 0.0 102095
09:00+19сз128083 0.0 1022152
12:00+21ссв236390 0.0 1022700
15:00+21ссв3468100 0.1 1022675
18:00+18ссв3472100 0.9 1023483
21:00+16ссв3486100 4.6 1024534
25 октября, пн
пн2500:00+15ссв4581100 2.6 1026519
03:00+14ссв4978100 4.6 10271050
06:00+13с3575100 0.7 1027551
09:00+13с3576100 2.3 1027642
12:00+14с6964100 0.1 10271197
15:00+14с696299 0.1 10261322
18:00+14ссв6962100 0.0 10261196
21:00+13ссв466729 0.0 1026377
26 октября, вт
вт2600:00+13ссв476684 0.0 1025385
03:00+13ссв456779 0.0 1024362
06:00+12ссв467078 0.0 1023361
09:00+13ссв466686 0.0 1024821
12:00+15ссв465812 0.0 10231140
15:00+15ссв455626 0.0 10211170
18:00+14ссв45624 0.0 1021921
21:00+13ссв347011 0.0 1021288